This demonstration page uses our WeatherBlox Daily Observations layout. Learn more.

Left ArrowRight Arrow

39.12711, -84.51439

Hourly Observations for September 28, 2016

Temp ( °F °C ) Dew Point ( °F °C ) Humidity (%) Winds ( mph kmh ) Pressure ( in mb ) Visibility ( mi km ) Precip ( " mm )
12:53 am 00:53 Clear 56 13.3 52 11.1 87 87 SSE 5 7 29.88 1012 10 16 0.00 0.00
1:53 am 01:53 Clear 54 12.2 51 10.6 90 90 Calm 29.88 1012 10 16 0.00 0.00
2:53 am 02:53 Clear 52 11.1 51 10.6 97 97 Calm 29.87 1012 10 16 0.00 0.00
3:53 am 03:53 Clear 52 11.1 51 10.6 97 97 Calm 29.85 1011 10 16 0.00 0.00
4:53 am 04:53 Cloudy 54 12.2 52 11.1 93 93 Calm 29.85 1011 10 16 0.00 0.00
5:53 am 05:53 Partly Cloudy 55 12.8 49 9.4 80 80 Calm 29.83 1010 10 16 0.00 0.00
6:53 am 06:53 Partly Cloudy 54 12.2 49 9.4 83 83 SW 5 7 29.83 1010 10 16 0.00 0.00
7:53 am 07:53 Mostly Cloudy 57 13.9 49 9.4 74 74 S 10 17 29.82 1010 10 16 0.00 0.00
8:53 am 08:53 Mostly Cloudy 59 15 51 10.6 75 75 S 5 7 29.81 1010 10 16 0.00 0.00
9:13 am 09:13 Cloudy with Thunderstorms 59 15 50 10 72 72 NNW 10 17 29.85 1011 10 16 0.00 0.00
9:39 am 09:39 Cloudy with Thunderstorms 58 14.4 52 11.1 81 81 NNE 3 6 29.85 1011 6 10 0.02 0.51
9:53 am 09:53 Cloudy with Strong Thunderstorms 56 13.3 54 12.2 93 93 NNE 3 6 29.85 1011 6 10 0.14 3.56
10:11 am 10:11 Cloudy with Light Rain 57 13.9 56 13.3 96 96 NE 5 7 29.85 1011 9 14 0.00 0.03
10:53 am 10:53 Mostly Cloudy 59 15 56 13.3 90 90 ESE 3 6 29.86 1011 10 16 0.00 0.03
11:53 am 11:53 Mostly Sunny 61 16.1 57 13.9 87 87 ENE 6 9 29.84 1011 10 16 0.00 0.00
12:53 pm 12:53 Mostly Cloudy with Light Rain 62 16.7 55 12.8 78 78 SSE 7 11 29.85 1011 10 16 0.00 0.03
1:42 pm 13:42 Cloudy with Light Rain 61 16 57 14 88 88 S 9 15 29.85 1011 10 16 0.00 0.00
1:53 pm 13:53 Cloudy with Rain 60 15.6 58 14.4 93 93 S 12 19 29.85 1011 6 10 0.02 0.51
2:28 pm 14:28 Cloudy with Light Rain 59 15 59 15 100 100 S 7 11 29.85 1011 4 6 0.07 1.78
2:50 pm 14:50 Cloudy with Heavy Rain 59 15 59 15 100 100 SSW 7 11 29.88 1012 2 3 0.00 0.00
2:53 pm 14:53 Cloudy with Heavy Rain 59 15 59 15 100 100 SSW 7 11 29.86 1011 2 3 0.16 4.06
3:08 pm 15:08 Cloudy with Heavy Rain 59 15 57 14 94 94 WSW 12 19 29.88 1012 2 3 0.00 0.00
3:23 pm 15:23 Cloudy with Rain 58 14.4 58 14.4 100 100 NNE 3 6 29.88 1012 5 8 0.14 3.56
3:46 pm 15:46 Cloudy with Rain 57 14 57 14 100 100 Calm 29.88 1012 7 11 0.00 0.00
3:53 pm 15:53 Cloudy with Light Rain 58 14.4 58 14.4 100 100 Calm 29.88 1012 7 11 0.19 4.83
4:39 pm 16:39 Mostly Cloudy 59 15 58 14.4 96 96 SSW 3 6 29.85 1011 10 16 0.02 0.51
4:53 pm 16:53 Mostly Cloudy 60 15.6 58 14.4 93 93 WSW 7 11 29.87 1012 10 16 0.02 0.51
5:53 pm 17:53 Cloudy 60 15.6 57 13.9 90 90 W 5 7 29.89 1012 10 16 0.00 0.00
6:53 pm 18:53 Cloudy 59 15 58 14.4 96 96 Calm 29.91 1013 10 16 0.00 0.00
7:22 pm 19:22 Cloudy with Thunderstorms 59 15 59 15 100 100 W 16 26 29.91 1013 3 5 0.00 0.00
7:53 pm 19:53 Cloudy with Light Rain 56 13.3 55 12.8 97 97 ENE 6 9 29.90 1012 7 11 0.34 8.64
8:53 pm 20:53 Clear 53 11.7 53 11.7 100 100 S 5 7 29.94 1014 10 16 0.01 0.25
9:53 pm 21:53 Mostly Cloudy 54 12.2 54 12.2 100 100 SSW 7 11 29.96 1015 10 16 0.00 0.00
10:09 pm 22:09 Cloudy 54 12.2 54 12.2 100 100 SSW 7 11 29.97 1015 8 13 0.00 0.00
10:44 pm 22:44 Mostly Cloudy 54 12 54 12 100 100 SW 5 7 29.97 1015 8 13 0.00 0.00
10:53 pm 22:53 Partly Cloudy 52 11.1 52 11.1 100 100 SW 5 7 29.97 1015 8 13 0.00 0.00
11:53 pm 23:53 Clear 50 10 50 10 100 100 SSW 5 7 29.97 1015 N/A 0.00 0.00

Powered by AerisWeather